User: anonymous   Login
Location: Meriden
(44.0740°N, 93.3870°W)
Time: 17:18:11
(UTC-05:00)
Language:

Hamsat - Orbit

View from above orbital plane
View from above orbital plane
View from above satellite
View from above satellite

Ground track
Ground track

The orbit data is extracted from the following two-line orbital elements,

1 28650U 05017B   16239.92630334 +.00000424 +00000-0 +51238-4 0  9998
2 28650 097.6143 218.9718 0024469 028.5372 331.7179 14.88370956612327
Epoch (UTC): 26 August 2016 22:13:52
Eccentricity: 0.0024469
inclination: 97.6143°
perigee height: 586 km
apogee height: 620 km
right ascension of ascending node: 218.9718°
argument of perigee: 28.5372°
revolutions per day: 14.88370956
mean anomaly at epoch: 331.7179°
orbit number at epoch: 61232

The dashed part of the orbit path shows where the satellite is in the earth's shadow,  

DLR